Regional Weather Roundup
Issued by NWS Boston, MA

Home | Current Version | Previous Version | Text Only | Print | Product List | Glossary On
Versions: 1 2 3 4 5 6 7 8 9 10 11 12 13 14 15 16 17 18 19 20 21 22 23 24 25 26
000
ASUS41 KBOX 120210
RWRBOX

REGIONAL WEATHER ROUNDUP
NATIONAL WEATHER SERVICE TAUNTON MA
900 PM EST MON DEC 11 2017

NOTE:  "FAIR" INDICATES FEW OR NO CLOUDS BELOW 12,000 FEET WITH NO
SIGNIFICANT WEATHER AND/OR OBSTRUCTIONS TO VISIBILITY.

MAZALL-120300-
EASTERN MASSACHUSETTS

CITY           SKY/WX    TMP DP  RH WIND       PRES   REMARKS
BOSTON         CLOUDY    36  16  44 CALM      30.03R
BEVERLY        CLOUDY    27  21  78 CALM      30.02R
LAWRENCE       CLOUDY    33  21  61 E5        30.04R WCI  29
BEDFORD        CLOUDY    26  21  81 CALM      30.01R
BLUE HILL        N/A     33  15  47 CALM      29.99R
NORWOOD        CLOUDY    28  25  88 CALM      30.03R
MARSHFIELD     PTCLDY    30  25  80 CALM      30.03S
PLYMOUTH       PTCLDY    29  24  82 CALM      30.03S
TAUNTON        CLOUDY    27  25  92 CALM      30.03R
NEW BEDFORD    CLOUDY    27  27 100 CALM      30.03R
$$

MAZALL-120300-
CAPE COD AND THE ISLANDS

CITY           SKY/WX    TMP DP  RH WIND       PRES   REMARKS
FALMOUTH       CLEAR     25  23  93 CALM      30.03S
HYANNIS        CLEAR     25  21  85 CALM      30.01S
CHATHAM        CLEAR     28  24  85 CALM      30.03S
PROVINCETOWN   CLEAR     28  22  78 CALM      30.03S
NANTUCKET      MOCLDY    29  26  89 NE5       30.02F WCI  24
MARTHAS VNYRD  CLEAR    N/A N/A N/A N5        30.02S
$$

MAZALL-120300-
CENTRAL AND WESTERN MASSACHUSETTS

CITY           SKY/WX    TMP DP  RH WIND       PRES   REMARKS
WORCESTER      CLOUDY    29  15  56 SE3       29.97S
FITCHBURG      CLOUDY    29  23  78 CALM      30.01S
ORANGE         CLOUDY    25  22  88 CALM      29.98F
SPRINGFIELD    CLOUDY    28  22  79 CALM      29.99F
WESTFIELD      CLOUDY    29  22  75 CALM      30.00S
NORTH ADAMS    CLOUDY    27  19  72 CALM      29.97S
PITTSFIELD     CLOUDY    27  18  69 CALM      29.93R
$$

RIZALL-120300-
RHODE ISLAND

CITY           SKY/WX    TMP DP  RH WIND       PRES   REMARKS
PROVIDENCE     CLOUDY    33  26  75 VRB3      30.03S
NEWPORT        MOCLDY    33  22  63 NE6       30.01F WCI  28
BLOCK ISLAND     N/A    N/A N/A N/A MISG        N/A
SMITHFIELD     CLOUDY    29  22  75 CALM      30.00F
WESTERLY       PTCLDY    30  27  88 CALM      30.02F
$$

CTZALL-120300-
CONNECTICUT

CITY           SKY/WX    TMP DP  RH WIND       PRES   REMARKS
BRADLEY INTL   CLOUDY    30  22  72 CALM      30.01S
HARTFORD       CLOUDY    32  24  72 SE3       30.02R
BRIDGEPORT     CLOUDY    38  22  52 N5        30.00F
DANBURY        CLOUDY    31  24  75 CALM      29.99F
GROTON         PTCLDY    30  24  78 NE3       30.01F
NEW HAVEN      CLOUDY    33  24  69 CALM      30.00F
CHESTER        MOCLDY    32  19  59 CALM      30.00S
MERIDEN        CLOUDY    29  24  82 CALM      30.00F
WILLIMANTIC    CLOUDY    30  25  81 CALM      30.02S
OXFORD         PTCLDY    29  20  69 CALM      29.97F
$$

MEZ002-015-021-024-NHZ003-005-008-011-012-014-VTZ005-008-120300-
NORTHERN NEW ENGLAND

CITY           SKY/WX    TMP DP  RH WIND       PRES   REMARKS
PORTLAND ME    MOCLDY    28  16  60 VRB6      30.03R WCI  22
BANGOR ME      PTCLDY    19  10  68 N9        30.06F WCI   8
CONCORD NH     CLOUDY    27  19  72 CALM      30.01R
MANCHESTER NH  CLOUDY    30  22  72 CALM      30.00S
NASHUA NH      CLOUDY    28  24  85 CALM      30.01F
PORTSMOUTH NH  CLOUDY    29  19  67 CALM      30.01R
JAFFREY NH     CLOUDY    25  22  88 CALM      29.96F
KEENE NH       MIX PCPN  26  22  84 CALM      29.99F
BURLINGTON VT  MOCLDY    16   8  71 NE5       29.98F WCI   9
MT. WASHINGTON CLOUDY     7 -27  19 W32         N/A  WCI -17
$$

NYZ052-076-120300-
EASTERN NEW YORK

CITY           SKY/WX    TMP DP  RH WIND       PRES   REMARKS
ALBANY         CLOUDY    29  18  63 S3        29.99S
NEW YORK CITY  CLOUDY    40  21  46 SW5       29.99F
$$

ANZALL-120300-
MARINE OBSERVATIONS

STATION/POSITION TIME  TEMP    WIND        PRES    VSBY  WAVE
                       AIR SEA DIR/SP/G                  HT/PER
                 (UTC) (F)     (DEG/KT/KT) (MB)    (MI)  (FT/S)
BOSTON BUOY      0150   38 48  320/  4/  6 1015.8R         1/11
BUZZARDS BAY     0100   38      20/ 11/ 12 1017.1S
NANTUCKET SOUND  0150   38 44   20/  2/  6 1016.7S         1
MASS BAY-STELLWA 0104   37 47  320/  8/ 10 1016.0F         2/11
ISLE OF SHOALS   0100   34     350/ 11/ 12 1016.2F
S OF BLOCK IS    0143      53                N/A           4/ 9
$$

......................KEY.........................
  SKY/WX - SKY CONDITION/PRESENT WEATHER
  TMP    - TEMPERATURE IN FAHRENHEIT
  DWPT   - DEWPOINT IN FAHRENHEIT
  RH     - RELATIVE HUMIDITY IN PERCENT
  WIND   - DIRECTION AND SPEED IN MPH
  PRES   - MEAN SEA LEVEL PRESSURE IN INCHES OF HG
  WCI    - WIND CHILL INDEX
  VSB    - VISIBILITY IN MILES
  HX     - HEAT INDEX
  TC     - TEMPERATURE IN CELSIUS
  VRB    - VARIABLE WIND DIRECTION
  N/A    - NOT AVAILABLE




USA.gov is the U.S. government's official web portal to all federal, state and local government web resources and services.